Terminal Aerodrome Forecast
Issued by NWS Grand Forks, ND

Home | Current Version | Previous Version | Text Only | Print | Product List | Glossary On
Versions: 1 2 3 4 5 6 7 8 9 10 11 12 13 14 15 16 17 18 19 20 21 22
000
FTUS43 KFGF 230100 AAA
TAFFAR
TAF AMD
KFAR 230121Z 2301/2324 36008KT P6SM OVC015
      TEMPO 2301/2304 BKN040
     FM230900 03007KT P6SM OVC015
      TEMPO 2310/2313 OVC010=

USA.gov is the U.S. government's official web portal to all federal, state and local government web resources and services.